When you browse on this site, cookies collect data to enhance your experience and personalize the content and advertising you see.
Visit our Privacy Policy to learn more. By continuing to use the site, you agree to this use of cookies and data.
  • In Hungary
  • List of Countries
  • For 7 days
  • Water Temperature
  • Satellite Maps
  • Weather Map
  • News
  • Weather Widgets
  • user-avatar
    Login

    Hourly Weather Geretsried

    Today, 15 February, Friday

    Time Temperature Precipitation Wind Pressure Humidity
    00:00 +1°C° 0 mm 1 mps 721 mmHg 78%
    01:00 +1°C° 0 mm 1 mps 721 mmHg 75%
    02:00 +1°C° 0 mm 1 mps 721 mmHg 74%
    03:00 -1°C° 0 mm 2 mps 720 mmHg 74%
    04:00 -2°C° 0 mm 2 mps 720 mmHg 73%
    05:00 -2°C° 0 mm 2 mps 720 mmHg 73%
    06:00 -2°C° 0 mm 2 mps 720 mmHg 72%
    07:00 -2°C° 0 mm 2 mps 720 mmHg 71%
    08:00 +2°C° 0 mm 1 mps 720 mmHg 74%
    09:00 +4°C° 0 mm 1 mps 720 mmHg 76%
    10:00 +6°C° 0 mm 1 mps 720 mmHg 78%
    11:00 +7°C° 0 mm 1 mps 720 mmHg 79%
    12:00 +9°C° 0 mm 1 mps 719 mmHg 80%
    13:00 +10°C° 0 mm 1 mps 719 mmHg 79%
    14:00 +10°C° 0 mm 1 mps 719 mmHg 83%
    15:00 +9°C° 0 mm 1 mps 719 mmHg 86%
    16:00 +8°C° 0 mm 1 mps 718 mmHg 90%
    17:00 +7°C° 0 mm 1 mps 718 mmHg 89%
    18:00 +4°C° 0 mm 2 mps 718 mmHg 87%
    19:00 +2°C° 0 mm 2 mps 718 mmHg 86%
    20:00 +2°C° 0 mm 2 mps 718 mmHg 83%
    21:00 +1°C° 0 mm 2 mps 718 mmHg 80%
    22:00 +1°C° 0 mm 2 mps 718 mmHg 77%
    23:00 +1°C° 0 mm 1 mps 718 mmHg 75%

    Tomorrow, 16 February, Saturday

    Time Temperature Precipitation Wind Pressure Humidity
    00:00 +1°C° 0 mm 1 mps 718 mmHg 73%
    01:00 +1°C° 0 mm 1 mps 718 mmHg 71%
    02:00 +1°C° 0 mm 1 mps 717 mmHg 70%
    03:00 +1°C° 0 mm 1 mps 717 mmHg 69%
    04:00 +1°C° 0 mm 1 mps 717 mmHg 69%
    05:00 +1°C° 0 mm 1 mps 717 mmHg 69%
    06:00 -1°C° 0 mm 2 mps 717 mmHg 69%
    07:00 -1°C° 0 mm 2 mps 717 mmHg 69%
    08:00 +3°C° 0 mm 1 mps 717 mmHg 69%
    09:00 +5°C° 0 mm 1 mps 718 mmHg 69%
    10:00 +7°C° 0 mm 1 mps 718 mmHg 69%
    11:00 +8°C° 0 mm 1 mps 718 mmHg 67%
    12:00 +10°C° 0 mm 1 mps 717 mmHg 66%
    13:00 +11°C° 0 mm 0 mps 717 mmHg 64%
    14:00 +10°C° 0 mm 0 mps 717 mmHg 69%
    15:00 +10°C° 0 mm 0 mps 717 mmHg 75%
    16:00 +9°C° 0 mm 0 mps 716 mmHg 80%
    17:00 +8°C° 0 mm 1 mps 717 mmHg 81%
    18:00 +7°C° 0 mm 1 mps 717 mmHg 82%
    19:00 +4°C° 0 mm 2 mps 717 mmHg 83%
    20:00 +3°C° 0 mm 2 mps 717 mmHg 81%
    21:00 +3°C° 0 mm 2 mps 717 mmHg 78%
    22:00 +2°C° 0 mm 2 mps 717 mmHg 76%
    23:00 +2°C° 0 mm 2 mps 717 mmHg 73%

    Day after tomorrow, 17 February, Sunday

    Time Temperature Precipitation Wind Pressure Humidity
    00:00 +1°C° 0 mm 2 mps 717 mmHg 71%
    01:00 +1°C° 0 mm 2 mps 716 mmHg 68%
    02:00 +1°C° 0 mm 2 mps 716 mmHg 67%
    03:00 +1°C° 0 mm 2 mps 716 mmHg 65%
    04:00 +1°C° 0 mm 2 mps 715 mmHg 64%
    05:00 +1°C° 0 mm 2 mps 715 mmHg 64%
    06:00 +1°C° 0 mm 2 mps 715 mmHg 63%
    07:00 -1°C° 0 mm 2 mps 715 mmHg 63%
    08:00 +3°C° 0 mm 1 mps 715 mmHg 63%
    09:00 +5°C° 0 mm 1 mps 715 mmHg 63%
    10:00 +7°C° 0 mm 1 mps 715 mmHg 63%
    11:00 +9°C° 0 mm 1 mps 715 mmHg 61%
    12:00 +10°C° 0 mm 0 mps 715 mmHg 58%
    13:00 +11°C° 0 mm 0 mps 715 mmHg 55%
    14:00 +11°C° 0 mm 0 mps 714 mmHg 61%
    15:00 +10°C° 0 mm 0 mps 714 mmHg 67%
    16:00 +10°C° 0 mm 0 mps 714 mmHg 72%
    17:00 +9°C° 0 mm 1 mps 714 mmHg 76%
    18:00 +7°C° 0 mm 1 mps 714 mmHg 79%
    19:00 +5°C° 0 mm 1 mps 714 mmHg 82%
    20:00 +4°C° 0 mm 1 mps 714 mmHg 80%
    21:00 +3°C° 0 mm 2 mps 714 mmHg 78%
    22:00 +2°C° 0 mm 2 mps 714 mmHg 76%
    23:00 +2°C° 0 mm 2 mps 714 mmHg 74%

    18 February, Monday

    Time Temperature Precipitation Wind Pressure Humidity
    00:00 +2°C° 0 mm 2 mps 714 mmHg 71%
    01:00 +1°C° 0 mm 2 mps 713 mmHg 69%
    02:00 +2°C° 0 mm 1 mps 713 mmHg 68%
    03:00 +2°C° 0 mm 1 mps 713 mmHg 67%
    04:00 +2°C° 0 mm 1 mps 713 mmHg 66%
    05:00 +1°C° 0 mm 1 mps 713 mmHg 65%
    06:00 +1°C° 0 mm 1 mps 712 mmHg 65%
    07:00 +1°C° 0 mm 1 mps 712 mmHg 65%
    08:00 +3°C° 0 mm 1 mps 712 mmHg 62%
    09:00 +5°C° 0 mm 1 mps 712 mmHg 60%
    10:00 +6°C° 0 mm 0 mps 712 mmHg 58%
    11:00 +8°C° 0 mm 0 mps 712 mmHg 55%
    12:00 +9°C° 0 mm 0 mps 712 mmHg 53%
    13:00 +11°C° 0 mm 0 mps 712 mmHg 50%
    14:00 +10°C° 0 mm 0 mps 711 mmHg 55%
    15:00 +9°C° 0 mm 0 mps 711 mmHg 60%
    16:00 +9°C° 0 mm 0 mps 711 mmHg 65%
    17:00 +8°C° 0 mm 1 mps 711 mmHg 70%
    18:00 +6°C° 0 mm 1 mps 711 mmHg 74%
    19:00 +4°C° 0 mm 1 mps 711 mmHg 79%
    20:00 +4°C° 0 mm 1 mps 711 mmHg 80%
    21:00 +4°C° 0 mm 1 mps 712 mmHg 81%
    22:00 +2°C° 0 mm 2 mps 712 mmHg 83%
    23:00 +2°C° 0 mm 2 mps 712 mmHg 81%

    19 February, Tuesday

    Time Temperature Precipitation Wind Pressure Humidity
    00:00 +2°C° 0 mm 2 mps 712 mmHg 79%
    01:00 +2°C° 0 mm 2 mps 712 mmHg 77%
    02:00 +2°C° 0 mm 2 mps 712 mmHg 76%
    03:00 +1°C° 0 mm 2 mps 712 mmHg 75%
    04:00 +1°C° 0 mm 2 mps 712 mmHg 74%
    05:00 +1°C° 0 mm 2 mps 712 mmHg 74%
    06:00 +1°C° 0 mm 2 mps 712 mmHg 73%
    07:00 +1°C° 0 mm 2 mps 712 mmHg 73%
    08:00 +3°C° 0 mm 2 mps 712 mmHg 69%
    09:00 +5°C° 0 mm 2 mps 712 mmHg 65%
    10:00 +8°C° 0 mm 1 mps 713 mmHg 61%
    11:00 +8°C° 0 mm 2 mps 712 mmHg 56%
    12:00 +10°C° 0 mm 2 mps 712 mmHg 51%
    13:00 +12°C° 0 mm 2 mps 712 mmHg 46%
    14:00 +12°C° 0 mm 2 mps 712 mmHg 49%
    15:00 +11°C° 0 mm 1 mps 712 mmHg 53%
    16:00 +11°C° 0 mm 1 mps 712 mmHg 57%
    17:00 +9°C° 0 mm 1 mps 712 mmHg 62%
    18:00 +7°C° 0 mm 1 mps 712 mmHg 68%
    19:00 +5°C° 0 mm 1 mps 713 mmHg 73%
    20:00 +5°C° 0 mm 1 mps 713 mmHg 74%
    21:00 +3°C° 0 mm 2 mps 713 mmHg 76%
    22:00 +3°C° 0 mm 2 mps 714 mmHg 77%
    23:00 +2°C° 0 mm 2 mps 714 mmHg 77%

    20 February, Wednesday

    Time Temperature Precipitation Wind Pressure Humidity
    00:00 +2°C° 0 mm 2 mps 714 mmHg 76%
    01:00 +2°C° 0 mm 2 mps 714 mmHg 76%
    02:00 +2°C° 0 mm 2 mps 714 mmHg 75%
    03:00 +1°C° 0 mm 2 mps 714 mmHg 74%
    04:00 +1°C° 0 mm 2 mps 714 mmHg 73%
    05:00 +1°C° 0 mm 2 mps 714 mmHg 72%
    06:00 +2°C° 0 mm 1 mps 714 mmHg 71%
    07:00 +2°C° 0 mm 1 mps 714 mmHg 70%
    08:00 +4°C° 0 mm 1 mps 714 mmHg 65%
    09:00 +6°C° 0 mm 1 mps 715 mmHg 61%
    10:00 +7°C° 0 mm 1 mps 715 mmHg 56%
    11:00 +9°C° 0 mm 1 mps 715 mmHg 53%
    12:00 +10°C° 0 mm 1 mps 715 mmHg 50%
    13:00 +11°C° 0 mm 1 mps 715 mmHg 46%
    14:00 +11°C° 0 mm 1 mps 715 mmHg 50%
    15:00 +11°C° 0 mm 1 mps 715 mmHg 54%
    16:00 +11°C° 0 mm 1 mps 714 mmHg 57%
    17:00 +9°C° 0 mm 1 mps 715 mmHg 63%
    18:00 +7°C° 0 mm 1 mps 715 mmHg 70%
    19:00 +5°C° 0 mm 1 mps 715 mmHg 76%
    20:00 +5°C° 0 mm 1 mps 715 mmHg 76%
    21:00 +4°C° 0 mm 1 mps 716 mmHg 77%
    22:00 +3°C° 0 mm 2 mps 716 mmHg 78%
    23:00 +3°C° 0 mm 2 mps 716 mmHg 76%
    Show more